Location: Gesvres
(49.0440°N, 2.8518°E)
Time: 10:45:24
(UTC+00:00)

Envisat - Visible Passes

Search period start: 28 May 2023 00:00
Search period end: 07 June 2023 00:00
Orbit: 763 x 765 km, 98.2° (Epoch: 27 May)

Date Brightness Start Highest point End Pass type
(mag) Time Alt. Az. Time Alt. Az. Time Alt. Az.
28 May 4.9 02:54:13 10° NE 02:58:34 28° E 03:02:53 10° SSE visible
29 May 5.6 02:18:29 10° ENE 02:20:59 14° E 02:23:28 10° ESE visible
31 May 5.2 02:42:06 10° NE 02:46:02 22° E 02:49:56 10° SE visible
01 Jun 5.9 02:07:33 10° ENE 02:08:22 10° E 02:09:11 10° E visible
02 Jun 4.5 03:06:19 10° NNE 03:10:58 35° E 03:15:36 10° SSE visible
03 Jun 5.5 02:30:05 10° NE 02:33:27 18° E 02:36:49 10° SE visible
05 Jun 4.9 02:54:05 10° NE 02:58:27 28° E 03:02:47 10° SSE visible
06 Jun 5.6 02:18:18 10° NE 02:20:52 14° E 02:23:25 10° ESE visible
